Regional Weather Roundup
Issued by NWS

Home | Current Version | Previous Version | Graphics & Text | Print | Product List | Glossary On
Versions: 1 2 3 4 5 6 7 8 9 10 11 12 13 14 15 16 17 18 19 20 21 22 23 24 25 26 27 28 29 30 31 32 33 34 35 36 37 38 39 40 41 42 43 44 45 46 47 48 49 50
000
ASUS43 KIND 241610
RWRIN

WEATHER ROUNDUP FOR INDIANA
NATIONAL WEATHER SERVICE INDIANAPOLIS IN
1200 PM EDT TUE APR 24 2018

NOTE: "FAIR" INDICATES FEW OR NO CLOUDS BELOW 12,000 FEET WITH NO
SIGNIFICANT WEATHER AND/OR OBSTRUCTIONS TO VISIBILITY.

* - STATION DOES NOT REPORT WEATHER SUCH AS PRECIPITATION OR FOG.

+ - STATION NOT QUALITY CONTROLLED BY THE NATIONAL WEATHER SERVICE.
    USE DATA WITH CAUTION...ESPECIALLY DEWPOINT AND RELATIVE
    HUMIDITY OBSERVATIONS.

INZ001>003-010>013-019-020-241700-
NORTHWEST INDIANA

CITY           SKY/WX    TMP DP  RH WIND       PRES   REMARKS
GARY /AIRPORT/ PTSUNNY   54  46  76 VRB5      30.05F
KNOX *+        CLOUDY    55  50  82 NE6       30.02F
LA PORTE +     CLOUDY    56  50  81 E6        30.04S
MICHIGAN CITY+ CLOUDY    57  48  72 E3        30.04F
MONTICELLO +   CLOUDY    56  50  79 E6        30.00F
VALPARAISO     CLOUDY    61  52  72 E9        30.03S

$$

LMZ046-743>745-241700-
SOUTHERN LAKE MICHIGAN

STATION/POSITION TIME  TEMP WIND        PRES
                       AIR  DIR/SP/G
                 (UTC) (F)  (DEG/KT/KT) (MB)
BURNS HARBOR     1540   44   CALM  /  3 1017.9F
MICHIGAN CITY    1540   47   10/  9/ 10   N/A

$$

INZ004-005-014>016-021>024-241700-
NORTH CENTRAL INDIANA

CITY           SKY/WX    TMP DP  RH WIND       PRES   REMARKS
ELKHART        PTSUNNY   57  48  72 E6        30.03F
GOSHEN         CLOUDY    58  49  72 SE8       30.03S
LOGANSPORT +   CLOUDY    52  50  93 NE6       30.02F FOG
PERU/GRISSOM   CLOUDY    54  54 100 NE6       29.99F FOG
ROCHESTER +    CLOUDY    59  52  77 E9        30.03S
SOUTH BEND     CLOUDY    57  49  74 VRB3      30.05F
WARSAW +       CLOUDY    55  50  82 E9        30.02F

$$

INZ006>009-017-018-025>027-241700-
NORTHEAST INDIANA

CITY           SKY/WX    TMP DP  RH WIND       PRES   REMARKS
ANGOLA *+      CLOUDY    55  48  76 E9G17     30.04F
AUBURN +       CLOUDY    55  50  82 E10       30.03F
FORT WAYNE     CLOUDY    57  51  80 E14       30.02F
HUNTINGTON +   CLOUDY    56  51  82 E8        30.00F

$$

INZ028-029-035-036-043>045-051>053-241700-
WEST CENTRAL INDIANA

CITY           SKY/WX    TMP DP  RH WIND       PRES   REMARKS
LAFAYETTE      CLOUDY    57  51  80 NE7       30.00S
TERRE HAUTE    CLOUDY    55  53  93 NE6       29.98F FOG

$$

INZ030>032-037>040-046>048-054>057-064-065-241700-
CENTRAL INDIANA

CITY           SKY/WX    TMP DP  RH WIND       PRES   REMARKS
ANDERSON       CLOUDY    54  52  94 E12       29.99F
COLUMBUS       LGT RAIN  54 N/A N/A NE6       29.96F FOG
FRANKFORT +    CLOUDY    55  53  94 E7        30.01F FOG
GREENWOOD *+   CLOUDY    53  52  97 NE8       29.97F
INDIANAPOLIS   DRIZZLE   54  53  97 NE7       29.97F FOG
-EAGLE CREEK   LGT RAIN  54  52  93 NE5       29.97F FOG
KOKOMO +       CLOUDY    53  52  96 NE7       30.00F FOG
MARION +       CLOUDY    55  50  84 E7        30.00F
MT COMFORT *+  CLOUDY    52  52 100 E8        29.98F
SHELBYVILLE    LGT RAIN  55  52  89 NE8       29.96F FOG
ZIONSVILLE +   DRIZZLE   52  51  99 E5        29.99S

$$

INZ033-034-041-042-049-050-058-059-241700-
EAST CENTRAL INDIANA

CITY           SKY/WX    TMP DP  RH WIND       PRES   REMARKS
MUNCIE         CLOUDY    56  52  86 E10       29.98F

$$

INZ060-061-067>069-081>083-085>088-241700-
SOUTHWEST INDIANA

CITY           SKY/WX    TMP DP  RH WIND       PRES   REMARKS
EVANSVILLE     LGT RAIN  55  55 100 N6        29.95F FOG
HUNTINGBURG *+ LGT RAIN  55  53  93 N5        29.94F

$$

INZ062-063-066-070>080-084-089>092-241700-
SOUTH CENTRAL AND SOUTHEAST INDIANA

CITY           SKY/WX    TMP DP  RH WIND       PRES   REMARKS
BLOOMINGTON    CLOUDY    54  52  93 N7        29.95F FOG

$$




USA.gov is the U.S. government's official web portal to all federal, state and local government web resources and services.